Location: Tirupapullyur
(11.7476°N, 79.7474°E)
Time: 10:14:32
(UTC+00:00)

Daily predictions for brighter satellites

Satellite Brightness Start Highest point End
(mag) Time Altitude Azimuth Time Altitude Azimuth Time Altitude Azimuth
VEP-3 4.1 13:21:51 10° W 13:31:07 43° NNW 13:36:20 10° NE
CZ-4 R/B 1.4 13:27:07 10° SSE 13:31:12 76° E 13:35:11 10° N
FUSE 4.1 13:26:02 10° WNW 13:31:21 70° SSW 13:36:40 10° ESE
H-2A R/B 3.4 13:31:48 10° SE 13:35:55 23° ENE 13:40:04 10° NNE
Cosmos 1655 Rocket 4.1 13:30:22 10° S 13:36:40 88° W 13:43:00 10° N
ARIANE 5 DEB (SYLDA) 4.2 13:33:51 10° SW 13:37:51 22° S 13:42:14 10° SE
Atlas Centaur 2 4.2 13:34:59 10° WNW 13:38:47 22° NNW 13:43:17 10° NE
Cosmos 1470 4.1 13:37:05 10° NNW 13:40:50 44° W 13:44:37 10° SSW
SL-14 R/B 4.2 13:39:10 10° SSE 13:42:26 26° E 13:45:44 10° NE
GPS 2-17 Rocket1 3.7 13:38:23 10° W 13:42:46 45° SSW 13:47:04 11° SE
Meteor 1-24 Rocket 4.1 13:39:18 10° SSE 13:44:36 43° E 13:50:03 10° NNE
Cosmos 1939 Rocket 4.1 13:45:42 10° S 13:49:38 44° W 13:53:31 10° NNW
Intelsat 5-1 Rocket 2.5 13:46:56 10° WNW 13:53:07 50° NNE 13:55:33 14° E
Cosmos 2082 4.3 13:49:30 10° N 13:54:40 38° ENE 13:59:04 14° SE
Cosmos 2360 Rocket 3.3 13:51:53 10° SSE 13:56:07 22° ESE 14:00:20 10° NE
Cosmos 1726 2.1 13:53:02 10° N 13:56:43 84° W 14:00:22 10° S
Cosmos 2227 Rocket 2.2 13:52:35 10° NNW 13:58:14 89° ENE 14:03:51 10° SSE
H-2A R/B 3.9 13:55:58 10° SW 13:58:29 17° S 14:03:33 10° SSE
Cosmos 1340 Rocket 3.6 13:55:02 10° NNW 13:58:54 52° W 14:02:44 10° S
Ariane H10 4.4 13:50:38 10° WSW 13:59:04 19° SW 14:02:30 10° SSE
Cosmos 1892 Rocket 3.4 13:56:33 10° S 14:00:50 68° E 14:05:06 10° N
NOSS 7 (D) 4.2 13:57:58 10° SSW 14:01:26 57° ESE 14:04:29 10° NE
Exosat Rocket 4.0 13:58:19 10° NNW 14:03:15 60° WSW 14:08:26 10° S
Cosmos 2219 4.1 13:59:07 10° NNW 14:04:29 49° WSW 14:09:52 10° S
USA 234 4.4 14:00:11 10° SSE 14:06:11 39° SW 14:12:11 10° WNW
YAOGAN 1 4.0 14:06:51 10° S 14:10:51 38° W 14:14:51 10° NNW
Okean 1-7 Rocket 3.6 14:06:29 10° S 14:11:01 70° E 14:15:32 10° N
Centaur AC-125 4.3 14:07:05 10° NW 14:11:28 65° NNE 14:25:10 19° ESE
Cosmos 1937 Rocket 4.3 14:08:06 10° NNE 14:12:48 32° ENE 14:14:54 24° ESE
SL-16 R/B 2.3 14:07:18 10° SSW 14:12:57 78° WNW 14:18:37 10° NNE
USA 186 2.6 14:15:14 31° E 14:15:39 32° ENE 14:18:40 10° NNE
Meteor 2-15 4.5 14:12:25 10° N 14:18:20 58° E 14:23:09 16° SSE
IUS-17 SRM-1 4.4 13:59:19 10° WNW 14:18:53 68° NNE 14:21:22 26° E
ARGOS 3.4 14:15:29 19° SE 14:19:10 52° ENE 14:24:24 10° N
DELTA 2 R/B (1) 3.7 14:14:27 10° SW 14:19:59 76° NW 14:25:33 10° NE
Cosmos 1626 Rocket 4.3 14:20:44 30° ESE 14:21:18 31° E 14:25:12 10° NNE
MOS 1 Rocket 4.1 14:19:36 10° N 14:24:29 60° WNW 14:29:40 10° SSW
CZ-2C R/B 3.3 14:18:50 10° S 14:24:41 87° W 14:30:24 10° NNW
Lacrosse 4 Rocket 4.3 14:23:28 10° W 14:24:48 11° WSW 14:26:08 10° SW
BREEZE-M DEB (TANK) 4.0 14:20:04 10° SSW 14:24:40 23° SSE 14:24:40 23° SSE
OAO 3 Copernicus 4.3 14:20:41 10° SW 14:25:40 58° SE 14:28:47 22° ENE
Hubble Space Telescope 0.9 14:26:37 10° SW 14:30:37 50° SSE 14:31:03 48° SE
Cosmos 1818 3.5 14:26:30 10° SSW 14:31:53 89° SE 14:37:18 10° NNE
Meteor 2-21 Rocket 4.4 14:26:42 10° S 14:32:48 62° E 14:38:53 10° NNE
Cosmos 1626 3.6 14:29:22 10° SSW 14:32:48 37° W 14:36:13 10° NNW
ATLAS 5 CENTAUR R/B 1.2 14:28:46 10° SSW 14:32:48 85° WNW 14:36:48 10° NNE
Cosmos 2315 Rocket 4.1 14:26:40 10° N 14:32:49 53° E 14:35:55 29° SSE
IRS-1A Rocket 4.2 14:34:06 30° SSE 14:36:49 65° ENE 14:42:16 10° N
GPS 2-18 Rocket1 4.0 14:33:43 10° W 14:37:11 41° NNW 14:38:36 27° NE
CZ-2C R/B 2.8 14:32:18 10° N 14:37:34 72° WNW 14:42:44 10° SSW
IUS-1 SRM-2 2.9 14:37:30 10° WNW 14:38:36 29° W 14:38:36 29° W
FREGAT/IRIS 4.2 14:41:50 24° N 14:41:50 24° N 14:43:04 10° N
Delta 142 4.4 14:39:06 10° NW 14:43:20 34° NNE 14:44:10 31° NE
Centaur D-1A AC-32 2.4 14:37:52 10° WNW 14:44:53 57° SSW 14:45:35 48° SSE
SJ 16-02 2.7 14:42:08 10° NW 14:46:09 35° W 14:49:03 17° SSW
MOS 1 4.2 14:45:50 41° SSE 14:47:48 70° ENE 14:53:25 10° N
Cosmos 2285 Rocket 4.3 14:45:43 10° N 14:51:36 42° ENE 14:52:05 41° E
Cosmos 1606 Rocket 4.3 14:48:58 10° NNW 14:53:18 52° W 14:55:17 29° SSW
USA 215 4.0 14:47:15 10° NNE 14:53:32 52° NW 14:59:49 10° SW
Meteor 2-15 Rocket 4.4 14:48:13 10° N 14:54:16 81° W 14:57:29 30° S
Cosmos 2228 3.8 14:50:05 10° NNW 14:54:17 50° W 14:56:06 30° SSW
Cosmos 858 Rocket 4.5 14:50:13 10° NNW 14:55:28 79° WSW 14:56:53 49° S
Cosmos 2322 Rocket 4.0 14:56:18 10° SW 15:01:07 29° WNW 15:05:56 10° NNW
Meteor 2-16 Rocket 4.4 14:58:39 25° S 15:02:23 84° W 15:08:28 10° N
ARIANE 44P R/B 4.3 15:01:57 10° WSW 15:02:58 16° WSW 15:02:58 16° WSW
Ariane Rocket 3.8 15:06:04 32° SSW 15:07:58 48° WSW 15:12:52 10° NNW
Cosmos 1602 Rocket 4.1 15:12:09 53° NNW 15:12:09 53° NNW 15:15:38 10° N
Milstar 3 Cent rocket 2.3 15:07:56 10° WNW 15:12:49 78° NNE 15:13:27 70° E
H-2A R/B 4.0 15:10:57 11° SSW 15:15:02 26° W 15:19:28 10° NW
SJ-6B 4.2 15:17:05 35° WNW 15:17:05 35° WNW 15:20:05 10° NNW
GPS 2-15 Rocket1 4.5 15:16:43 10° WNW 15:21:07 34° N 15:21:07 34° N
Palapa B4 Rocket 3.7 15:13:54 10° WSW 15:21:46 86° W 15:21:46 86° W
SPOT 3 Rocket 4.0 15:23:19 56° N 15:23:19 56° N 15:27:24 10° N
Cosmos 2322 4.3 15:24:27 47° NNE 15:24:27 47° NNE 15:28:25 10° NNE
Resurs 01 Rocket 3.7 15:29:29 20° N 15:29:29 20° N 15:30:57 10° N
NOSS 3-1 (C) 4.2 15:24:04 10° NNW 15:32:41 82° WSW 15:34:27 62° S
Cosmos 2219 Rocket 4.4 15:43:25 15° NNE 15:43:25 15° NNE 15:44:15 10° NNE
Cosmos 2360 Rocket 4.1 15:35:10 10° SW 15:39:49 26° WNW 15:44:28 10° NNW
Cosmos 1745 Rocket 4.4 15:42:18 55° W 15:42:34 55° W 15:48:36 10° N
Cosmos 2333 Rocket 4.1 15:47:32 20° NNE 15:47:32 20° NNE 15:49:12 10° NNE
USA 229 DEB 3.9 15:38:57 10° NNW 15:46:32 74° WSW 15:46:35 73° WSW
USA 229 3.9 15:39:02 10° NNW 15:46:38 74° WSW 15:46:39 74° WSW
Cosmos 2263 Rocket 3.4 15:47:42 10° NNW 15:51:03 38° NNW 15:51:03 38° NNW
NOSS 3-1 (A) 4.2 15:48:36 10° NNW 15:56:59 86° NW 15:56:59 86° NW
CZ-4C R/B 3.2 21:23:35 10° NNW 21:31:11 75° NNE 21:31:11 75° NNE
ARIANE 5 R/B 4.2 21:33:59 45° SE 21:33:59 45° SE 21:52:22 10° E
Cosmos 2082 Rocket 3.4 21:39:39 38° E 21:39:39 38° E 21:44:01 10° NE
H-2A R/B 4.0 21:55:17 26° E 21:56:04 28° ENE 21:59:53 10° NNE
ARIANE 5 R/B 3.6 21:59:49 24° ESE 21:59:49 24° ESE 22:03:12 10° E
Cosmos 1833 Rocket 3.6 22:04:40 37° NNW 22:04:40 37° NNW 22:08:15 10° N
IDEFIX/ARIANE 42P 4.0 21:58:42 10° N 22:01:16 28° NNW 22:01:16 28° NNW
Delta 168 4.2 22:14:35 43° SE 22:14:35 43° SE 22:17:31 10° ESE
CZ-2C R/B 3.0 22:08:28 10° NNE 22:13:00 46° E 22:13:15 46° ESE
ATLAS 2A CENTAUR R/B 4.0 22:21:37 26° NW 22:22:23 27° NW 22:25:33 10° NNE
MSX 4.2 22:20:01 10° N 22:25:00 48° WNW 22:25:00 48° WNW
PSLV R/B 4.0 22:22:44 10° N 22:26:09 55° N 22:26:09 55° N
Landsat 5 3.5 22:33:40 64° SE 22:34:14 76° ENE 22:38:19 10° N
ARIANE R/B 4.0 22:37:01 33° SSE 22:37:01 33° SSE 22:39:40 10° ESE
Cosmos 1743 3.1 22:43:31 51° NNW 22:43:31 51° NNW 22:46:32 10° N
USA 238 DEB 4.5 22:39:12 17° S 22:43:56 45° ESE 22:50:10 10° NE
USA 238 4.5 22:39:17 17° S 22:44:02 44° ESE 22:50:14 10° NE
GPS 2-14 Rocket1 3.8 22:46:10 33° NW 22:47:02 36° NNW 22:50:53 10° NE
Meteor 2-4 Rocket 4.5 22:42:43 10° NNW 22:47:32 34° W 22:47:32 34° W
Cosmos 1908 Rocket 3.5 22:48:48 57° WSW 22:49:19 63° W 22:53:43 10° N
Atlas Centaur 2 4.0 22:52:07 24° SSW 22:52:07 24° SSW 22:57:22 10° SSE
Meteor 1-13 Rocket 4.2 22:45:51 10° NNW 22:51:25 57° W 22:54:16 28° SSW
Cosmos 1674 Rocket 3.8 22:48:20 10° N 22:52:38 68° E 22:56:55 10° S
Cosmos 1891 Rocket 4.3 22:49:30 27° SSW 22:53:01 72° W 22:59:12 10° N
Cosmos 1544 3.2 22:52:00 43° SSE 22:53:03 71° E 22:56:37 10° N
Cosmos 1484 Rocket 3.7 22:52:02 10° NNE 22:55:42 44° E 22:58:36 15° S
SJ-6F 4.3 22:52:58 10° N 22:57:03 75° WNW 22:58:27 40° SSW
Hubble Space Telescope 2.1 22:55:58 11° NW 22:59:43 38° NNE 23:03:35 10° E
Cosmos 1656 4.2 22:56:04 10° N 23:01:24 59° ENE 23:06:48 10° SSE
ALOS 3.1 22:57:51 10° NNE 23:02:21 50° E 23:06:51 10° S
SAR-Lupe-4 4.0 22:59:51 10° SSE 23:03:21 60° ENE 23:06:52 10° N
Cosmos 1513 Rocket 4.5 23:00:54 24° SSW 23:04:31 55° W 23:10:28 10° N
CZ-4B R/B 2.4 23:01:32 10° SSE 23:04:43 47° ENE 23:07:58 10° N
SWIFT 4.3 23:03:57 12° NW 23:07:03 24° N 23:10:32 10° NE
H-2A R/B 4.1 23:14:07 10° NE 23:17:58 33° E 23:21:41 10° SSE
SAR-Lupe-1 3.9 23:17:10 10° S 23:20:42 76° WSW 23:24:14 10° NNW
Cosmos 2082 Rocket 3.9 23:21:32 14° W 23:22:41 15° WNW 23:25:47 10° NW
Meteor PRIRODA 4.2 23:21:25 10° NNE 23:25:00 57° ESE 23:28:35 10° S
CZ-3B R/B 3.6 23:19:33 11° W 23:25:13 25° NNW 23:28:04 10° NNE
CENTAUR R/B 3.0 23:22:33 10° S 23:27:32 47° ESE 23:33:00 10° NE
Cosmos 1975 3.5 23:26:24 19° SW 23:28:42 33° W 23:32:20 10° NNW
H-2A R/B 3.9 23:32:23 14° W 23:32:23 14° W 23:34:10 10° WNW
SJ-12 4.0 23:28:56 10° NNE 23:33:01 81° E 23:37:06 10° S
Cosmos 1975 Rocket 4.1 23:33:23 10° N 23:37:40 49° E 23:41:58 10° SSE
Sylda 4400 3.6 23:38:09 15° WSW 23:40:07 29° S 23:42:16 10° ESE
NOSS 3-2 (C) 3.2 23:37:41 10° SSW 23:43:04 86° ESE 23:48:41 10° NNE
Palapa B4 Rocket 4.3 23:40:34 10° W 23:45:44 52° SSW 23:54:05 10° ESE
Cosmos 1697 Rocket 2.8 23:40:29 10° NNW 23:46:05 84° ENE 23:51:40 10° SSE
CZ-3 R/B 3.3 23:17:55 10° WNW 23:48:56 82° NNE 23:56:03 10° ESE
Nadezhda 4 Rocket 4.1 23:43:14 10° N 23:49:34 89° ENE 23:55:55 10° S
CZ-4B R/B 3.5 23:45:56 10° N 23:49:46 41° WNW 23:53:48 10° SSW
CZ-3C R/B 2.3 23:41:28 10° WNW 23:52:21 48° SSW 23:55:16 10° SE
